Tiempo cada hora Barmashove

Hoy, 13 Mayo, Jueves

Tiempo Temperatura Precipitaciones Viento Presión Humedad
00:00 +8°C° 0 mm 1 mps 753 mmHg 81%
01:00 +8°C° 0 mm 1 mps 753 mmHg 82%
02:00 +7°C° 0 mm 1 mps 753 mmHg 83%
03:00 +7°C° 0 mm 1 mps 753 mmHg 82%
04:00 +7°C° 0 mm 1 mps 753 mmHg 82%
05:00 +6°C° 0 mm 2 mps 753 mmHg 81%
06:00 +9°C° 0 mm 2 mps 753 mmHg 74%
07:00 +12°C° 0 mm 2 mps 753 mmHg 66%
08:00 +13°C° 0 mm 3 mps 753 mmHg 58%
09:00 +14°C° 0 mm 3 mps 753 mmHg 53%
10:00 +17°C° 0 mm 3 mps 753 mmHg 49%
11:00 +19°C° 0 mm 3 mps 753 mmHg 44%
12:00 +19°C° 0 mm 3 mps 753 mmHg 44%
13:00 +20°C° 0 mm 3 mps 753 mmHg 44%
14:00 +20°C° 0 mm 2 mps 752 mmHg 44%
15:00 +20°C° 0 mm 3 mps 752 mmHg 45%
16:00 +21°C° 0 mm 3 mps 752 mmHg 46%
17:00 +21°C° 0 mm 3 mps 752 mmHg 47%
18:00 +19°C° 0 mm 3 mps 752 mmHg 53%
19:00 +17°C° 0 mm 3 mps 752 mmHg 60%
20:00 +16°C° 0 mm 3 mps 752 mmHg 66%
21:00 +15°C° 0 mm 2 mps 752 mmHg 69%
22:00 +14°C° 0 mm 2 mps 751 mmHg 72%
23:00 +13°C° 0 mm 2 mps 751 mmHg 74%

Mañana, 14 Mayo, Viernes

Tiempo Temperatura Precipitaciones Viento Presión Humedad
00:00 +13°C° 0 mm 2 mps 751 mmHg 77%
01:00 +12°C° 0 mm 2 mps 751 mmHg 80%
02:00 +12°C° 0 mm 2 mps 751 mmHg 82%
03:00 +12°C° 0 mm 2 mps 751 mmHg 82%
04:00 +12°C° 0 mm 2 mps 751 mmHg 83%
05:00 +12°C° 0 mm 2 mps 751 mmHg 83%
06:00 +13°C° 0 mm 3 mps 751 mmHg 76%
07:00 +14°C° 0 mm 3 mps 751 mmHg 69%
08:00 +17°C° 0 mm 4 mps 751 mmHg 62%
09:00 +19°C° 0 mm 5 mps 751 mmHg 57%
10:00 +20°C° 0 mm 5 mps 751 mmHg 53%
11:00 +22°C° 0 mm 6 mps 751 mmHg 49%
12:00 +22°C° 0 mm 6 mps 751 mmHg 50%
13:00 +22°C° 0 mm 6 mps 751 mmHg 51%
14:00 +22°C° 0 mm 7 mps 751 mmHg 52%
15:00 +22°C° 0 mm 6 mps 751 mmHg 54%
16:00 +21°C° 0 mm 6 mps 751 mmHg 56%
17:00 +20°C° 0 mm 5 mps 751 mmHg 58%
18:00 +19°C° 0 mm 5 mps 751 mmHg 66%
19:00 +17°C° 0 mm 4 mps 752 mmHg 73%
20:00 +14°C° 0 mm 3 mps 752 mmHg 81%
21:00 +14°C° 0 mm 3 mps 752 mmHg 80%
22:00 +14°C° 0 mm 4 mps 752 mmHg 79%
23:00 +14°C° 0 mm 4 mps 752 mmHg 78%

Pasado mañana, 15 Mayo, Sábado

Tiempo Temperatura Precipitaciones Viento Presión Humedad
00:00 +14°C° 0 mm 4 mps 752 mmHg 82%
01:00 +13°C° 0 mm 4 mps 752 mmHg 85%
02:00 +13°C° 0 mm 3 mps 752 mmHg 89%
03:00 +13°C° 0 mm 3 mps 753 mmHg 90%
04:00 +13°C° 0 mm 3 mps 753 mmHg 90%
05:00 +13°C° 0 mm 3 mps 753 mmHg 90%
06:00 +16°C° 0 mm 3 mps 753 mmHg 81%
07:00 +18°C° 0 mm 4 mps 753 mmHg 72%
08:00 +20°C° 0 mm 4 mps 753 mmHg 63%
09:00 +21°C° 0 mm 5 mps 754 mmHg 57%
10:00 +23°C° 0 mm 5 mps 754 mmHg 51%
11:00 +25°C° 0 mm 5 mps 754 mmHg 46%
12:00 +25°C° 0 mm 5 mps 754 mmHg 44%
13:00 +25°C° 0 mm 5 mps 754 mmHg 42%
14:00 +25°C° 0 mm 5 mps 754 mmHg 41%
15:00 +25°C° 0 mm 5 mps 753 mmHg 43%
16:00 +23°C° 0 mm 4 mps 753 mmHg 45%
17:00 +24°C° 0 mm 3 mps 753 mmHg 47%
18:00 +21°C° 0 mm 3 mps 753 mmHg 54%
19:00 +19°C° 0 mm 2 mps 753 mmHg 61%
20:00 +17°C° 0 mm 2 mps 754 mmHg 68%
21:00 +16°C° 0 mm 2 mps 753 mmHg 70%
22:00 +16°C° 0 mm 1 mps 753 mmHg 72%
23:00 +15°C° 0 mm 1 mps 753 mmHg 74%

16 Mayo, Domingo

Tiempo Temperatura Precipitaciones Viento Presión Humedad
00:00 +15°C° 0 mm 2 mps 753 mmHg 74%
01:00 +15°C° 0 mm 2 mps 753 mmHg 75%
02:00 +14°C° 0 mm 2 mps 753 mmHg 75%
03:00 +14°C° 0 mm 2 mps 753 mmHg 75%
04:00 +14°C° 0 mm 2 mps 753 mmHg 75%
05:00 +13°C° 0 mm 3 mps 753 mmHg 75%
06:00 +17°C° 0 mm 3 mps 753 mmHg 69%
07:00 +19°C° 0 mm 4 mps 753 mmHg 63%
08:00 +21°C° 0 mm 4 mps 753 mmHg 56%
09:00 +23°C° 0 mm 4 mps 752 mmHg 52%
10:00 +25°C° 0 mm 4 mps 752 mmHg 48%
11:00 +27°C° 0 mm 5 mps 752 mmHg 43%
12:00 +28°C° 0 mm 4 mps 751 mmHg 41%
13:00 +28°C° 0 mm 4 mps 751 mmHg 39%
14:00 +29°C° 0 mm 4 mps 750 mmHg 37%
15:00 +28°C° 0 mm 3 mps 750 mmHg 42%
16:00 +27°C° 0 mm 3 mps 750 mmHg 46%
17:00 +27°C° 0 mm 3 mps 749 mmHg 51%
18:00 +25°C° 0.2 mm 3 mps 749 mmHg 57%
19:00 +22°C° 0.2 mm 3 mps 749 mmHg 64%
20:00 +21°C° 0.2 mm 3 mps 748 mmHg 70%
21:00 +20°C° 1.5 mm 2 mps 748 mmHg 77%
22:00 +19°C° 1.5 mm 2 mps 748 mmHg 83%
23:00 +18°C° 1.5 mm 2 mps 747 mmHg 90%

17 Mayo, Lunes

Tiempo Temperatura Precipitaciones Viento Presión Humedad
00:00 +18°C° 0.7 mm 2 mps 747 mmHg 92%
01:00 +18°C° 0.7 mm 2 mps 747 mmHg 93%
02:00 +17°C° 0.7 mm 2 mps 747 mmHg 95%
03:00 +17°C° 0.4 mm 2 mps 747 mmHg 95%
04:00 +17°C° 0.4 mm 2 mps 747 mmHg 95%
05:00 +17°C° 0.4 mm 2 mps 746 mmHg 96%
06:00 +18°C° 0.1 mm 2 mps 746 mmHg 92%
07:00 +19°C° 0.1 mm 2 mps 747 mmHg 89%
08:00 +20°C° 0.1 mm 2 mps 747 mmHg 85%
09:00 +21°C° 0.1 mm 3 mps 747 mmHg 81%
10:00 +21°C° 0.1 mm 3 mps 747 mmHg 78%
11:00 +22°C° 0.1 mm 3 mps 747 mmHg 74%
12:00 +23°C° 0.3 mm 4 mps 747 mmHg 68%
13:00 +25°C° 0.3 mm 5 mps 747 mmHg 61%
14:00 +26°C° 0.3 mm 6 mps 747 mmHg 55%
15:00 +25°C° 0.1 mm 5 mps 748 mmHg 57%
16:00 +23°C° 0.1 mm 5 mps 748 mmHg 60%
17:00 +22°C° 0.1 mm 5 mps 748 mmHg 62%
18:00 +21°C° 0 mm 5 mps 748 mmHg 68%
19:00 +19°C° 0 mm 4 mps 749 mmHg 75%
20:00 +17°C° 0 mm 3 mps 749 mmHg 81%
21:00 +17°C° 0.1 mm 3 mps 750 mmHg 84%
22:00 +16°C° 0.1 mm 3 mps 750 mmHg 87%
23:00 +16°C° 0.1 mm 3 mps 750 mmHg 90%

18 Mayo, Martes

Tiempo Temperatura Precipitaciones Viento Presión Humedad
00:00 +14°C° 0 mm 3 mps 750 mmHg 91%
01:00 +14°C° 0 mm 3 mps 750 mmHg 92%
02:00 +15°C° 0 mm 2 mps 750 mmHg 94%
03:00 +15°C° 0 mm 2 mps 751 mmHg 93%
04:00 +15°C° 0 mm 2 mps 751 mmHg 92%
05:00 +15°C° 0 mm 1 mps 751 mmHg 92%
06:00 +17°C° 0 mm 2 mps 751 mmHg 83%
07:00 +19°C° 0 mm 2 mps 752 mmHg 75%
08:00 +21°C° 0 mm 3 mps 752 mmHg 67%
09:00 +23°C° 0 mm 4 mps 752 mmHg 61%
10:00 +25°C° 0 mm 5 mps 752 mmHg 55%
11:00 +26°C° 0 mm 6 mps 752 mmHg 49%
12:00 +26°C° 0 mm 6 mps 752 mmHg 49%
13:00 +26°C° 0 mm 6 mps 753 mmHg 49%
14:00 +26°C° 0 mm 6 mps 753 mmHg 49%
15:00 +26°C° 0 mm 6 mps 753 mmHg 53%
16:00 +25°C° 0 mm 5 mps 753 mmHg 56%
17:00 +23°C° 0 mm 5 mps 753 mmHg 60%
18:00 +22°C° 0 mm 5 mps 753 mmHg 63%
19:00 +20°C° 0 mm 4 mps 753 mmHg 67%
20:00 +18°C° 0 mm 3 mps 753 mmHg 70%
21:00 +18°C° 0 mm 3 mps 753 mmHg 71%
22:00 +17°C° 0 mm 3 mps 753 mmHg 72%
23:00 +16°C° 0 mm 3 mps 753 mmHg 72%
Mostrar más

Necesitamos Su Consentimiento

Meteoprog y nuestros Proveedores de Servicios pueden almacenar y acceder a sus datos personales como cookies, identificadores de dispositivo u otras tecnologías similares de su dispositivo y procesar dichos datos para personalizar contenido y anuncios, además de ofrecer funciones de redes sociales y analizar el tráfico.

  • Almacenar y/o acceder a información en su dispositivo

    Se puede almacenar o acceder a cookies, identificadores de dispositivo u otra información de su dispositivo para los fines anteriormente indicados.

  • Anuncios y contenido personalizados, medición de anuncios y contenido, percepciones del público, y desarrollo de productos

    Los anuncios y el contenido pueden personalizarse en base a su perfil. Se pueden añadir más datos para personalizar mejor los anuncios y contenidos. Se puede medir el rendimiento de los anuncios y contenidos. Se puede obtener la percepción sobre el público que ha visto los anuncios y contenidos. Dichos datos pueden usarse para desarrollar o mejorar la experiencia del usuario, sistemas y software.

Al hacer clic en ‘Estoy De Acuerdo’ usted permitirá el uso de las cookies, identificadores de dispositivo, balizas web u otras tecnologías similares indicadas. Su configuración puede cambiarse desde el navegador de su dispositivo.

Para ciertos fines, los intereses legítimos pueden ser considerados por encima del consentimiento. Puede leer más sobre ello en nuestra Política de Privacidad y Cookies.